DateTimeUTC,F1_A11,F1_S11,BsB_S11,BsG_S11,BsR_S11,BbsB_S11,BbsG_S11,BbsR_S11,BaB_A11,BaG_A11,BaR_A11,Tu_S11,T_S11,Uu_S11,U_S11,P_S11,T1_A11
2021-09-15T16:00:00Z,00000200,21000000,,,,,,,-000.10,0000.17,-000.10,18.6,25.7,00.9,00.6,0657.9,31.1
2021-09-15T16:01:00Z,00000200,21000000,,,,,,,0000.22,-000.30,0000.23,18.6,25.7,00.9,00.6,0657.9,31.1
2021-09-15T16:02:00Z,00000200,21000000,,,,,,,-000.01,0000.16,-000.23,18.6,25.7,00.9,00.6,0657.8,31.1
2021-09-15T16:03:00Z,00000200,61000000,,,,,,,0000.32,0000.54,0000.19,18.6,25.7,00.9,00.6,0657.8,31.1
2021-09-15T16:04:00Z,00000200,41000000,0004.22,0002.30,0001.31,0000.87,0000.26,0000.13,0000.23,-000.17,0000.29,18.8,25.5,00.9,00.6,0658.7,31.1
2021-09-15T16:05:00Z,00000200,01000000,0002.87,0002.60,0001.28,0000.75,0000.51,0000.22,-000.03,0000.23,0000.03,18.9,25.4,01.0,00.7,0658.8,31.1
2021-09-15T16:06:00Z,00000200,01000000,0003.46,0002.57,0001.42,0000.83,0000.63,0000.06,0000.25,0000.03,0000.03,18.9,25.4,00.9,00.6,0658.8,31.1
2021-09-15T16:07:00Z,00000200,01000000,0003.24,0002.63,0001.48,0000.65,0000.39,0000.45,0000.03,0000.09,-000.21,18.9,25.4,01.0,00.7,0658.8,31.1
2021-09-15T16:08:00Z,00000200,01000000,0003.95,0002.55,0001.57,0000.40,0000.06,0000.18,0000.22,-000.02,0000.43,18.9,25.4,00.9,00.6,0658.8,31.1
2021-09-15T16:09:00Z,00000200,01000000,0002.96,0002.66,0001.70,0000.17,0000.52,0000.62,-000.23,0000.33,0000.44,18.9,25.4,01.0,00.7,0658.8,31.1
2021-09-15T16:10:00Z,00000200,01000000,0003.99,0002.42,0001.57,0000.67,0000.28,0000.43,0000.70,0000.13,0000.13,18.9,25.4,01.0,00.7,0658.8,31.1
2021-09-15T16:11:00Z,00000200,01000000,0003.41,0002.61,0001.88,-000.05,0000.42,0000.47,-000.02,0000.15,0000.18,18.8,25.4,00.9,00.6,0658.8,31.1
2021-09-15T16:12:00Z,00000200,01000000,0004.24,0002.23,0001.54,0000.91,0000.60,0000.16,0000.20,-000.16,0000.23,18.8,25.4,01.0,00.7,0658.8,31.1
2021-09-15T16:13:00Z,00000200,01000000,0003.65,0002.30,0001.62,0001.22,0000.35,0000.25,0000.17,0000.24,-000.20,18.8,25.4,01.1,00.7,0658.8,31.1
2021-09-15T16:14:00Z,00000200,01000000,0003.52,0002.99,0001.39,0000.49,0000.36,0000.26,0000.21,0000.52,0000.42,18.8,25.4,01.1,00.8,0658.8,31.1
2021-09-15T16:15:00Z,00000200,01000000,0003.96,0002.47,0001.29,0000.05,0000.13,0000.47,0000.67,0000.09,0000.13,18.8,25.4,01.1,00.7,0658.8,31.1
2021-09-15T16:16:00Z,00000200,01000000,0003.87,0002.18,0001.88,0000.58,0000.45,0000.36,-000.10,0000.30,0000.27,18.8,25.4,01.1,00.8,0658.8,31.1
2021-09-15T16:17:00Z,00000200,01000000,0005.03,0003.74,0002.53,0000.22,0000.19,0000.29,0000.53,0000.66,0000.25,18.8,25.4,01.1,00.8,0658.8,31.1
2021-09-15T16:18:00Z,00000200,01000000,0004.86,0004.32,0003.43,0000.15,0000.96,0000.53,0003.05,0002.79,0003.17,18.8,25.4,01.3,00.9,0658.9,31.1
2021-09-15T16:19:00Z,00000200,01000000,0003.78,0002.31,0001.33,-000.08,0000.30,0000.13,0000.68,0000.46,0000.61,18.8,25.4,01.3,00.9,0659.0,31.1
2021-09-15T16:20:00Z,00000200,01000000,0003.77,0002.53,0001.79,0000.36,0000.40,0000.22,0000.06,0000.14,0000.01,18.8,25.4,01.2,00.8,0659.0,31.0
2021-09-15T16:21:00Z,00000200,01000000,0003.80,0002.02,0001.27,0000.74,0000.52,0000.30,-000.05,0000.38,0000.02,18.8,25.3,01.2,00.8,0659.0,31.0
2021-09-15T16:22:00Z,00000200,01000000,0003.36,0002.02,0001.31,0000.98,0000.62,0000.08,0000.28,-000.68,-000.03,18.8,25.3,01.1,00.7,0659.0,31.0
2021-09-15T16:23:00Z,00000200,01000000,0002.95,0002.07,0001.60,0000.23,0000.20,-000.07,-000.27,0000.16,-000.01,18.8,25.3,01.0,00.7,0659.0,31.0
2021-09-15T16:24:00Z,00000200,01000000,0003.07,0002.69,0001.69,0000.17,0000.48,0000.14,0000.24,0000.12,0000.44,18.8,25.3,01.0,00.7,0659.0,31.0
2021-09-15T16:25:00Z,00000200,01000000,0004.22,0002.00,0001.55,0000.20,0000.33,0000.19,0000.50,0000.67,0000.10,18.8,25.3,01.1,00.7,0659.0,31.1
2021-09-15T16:26:00Z,00000200,01000000,0003.42,0001.93,0001.40,0000.91,0000.33,0000.04,0000.25,0000.43,0000.18,18.8,25.3,01.1,00.7,0659.0,31.1
2021-09-15T16:27:00Z,00000200,01000000,0003.20,0002.19,0001.13,0000.55,0000.24,0000.07,0000.15,-000.19,0000.44,18.9,25.4,01.0,00.7,0659.0,31.1
2021-09-15T16:28:00Z,00000200,01000000,0002.82,0002.83,0001.25,0000.25,-000.00,0000.31,0000.22,0000.45,-000.21,19.0,25.4,01.0,00.7,0659.0,31.1
2021-09-15T16:29:00Z,00000200,01000000,0002.99,0002.15,0001.02,0000.13,0000.38,-000.09,-000.08,-000.21,0000.62,19.1,25.4,01.0,00.7,0659.0,31.1
2021-09-15T16:30:00Z,00000200,01000000,0003.58,0002.19,0001.30,0000.32,0000.19,0000.42,0000.08,0000.02,-000.16,19.1,25.5,00.9,00.6,0659.0,31.1
2021-09-15T16:31:00Z,00000200,01000000,0002.80,0002.10,0001.26,0000.69,0000.44,0000.27,0000.08,0000.23,0000.34,19.1,25.5,01.0,00.6,0659.0,31.1
2021-09-15T16:32:00Z,00000200,01000000,0002.83,0001.58,0001.42,-000.03,-000.01,0000.10,-000.07,0000.05,0000.00,19.1,25.5,00.9,00.6,0659.0,31.1
2021-09-15T16:33:00Z,00000200,01000000,0002.91,0001.95,0001.29,0000.61,0000.53,0000.03,0000.29,0000.35,0000.19,19.0,25.5,00.9,00.6,0659.0,31.1
2021-09-15T16:34:00Z,00000200,01000000,0002.76,0001.81,0000.81,0000.12,0000.39,0000.14,0000.17,-000.35,-000.19,19.0,25.4,01.0,00.7,0659.0,31.1
2021-09-15T16:35:00Z,00000200,01000000,0002.97,0001.80,0001.12,0000.80,0000.37,0000.37,0000.04,0000.37,0000.11,19.0,25.5,00.9,00.6,0659.0,31.1
2021-09-15T16:36:00Z,00000200,01000000,0003.48,0001.48,0001.02,0000.21,0000.36,0000.11,0000.09,0000.13,-000.16,19.0,25.5,01.0,00.7,0659.0,31.1
2021-09-15T16:37:00Z,00000200,01000000,0002.93,0001.89,0001.45,0000.62,0000.14,0000.23,0000.27,-000.14,0000.09,19.0,25.5,00.9,00.6,0659.0,31.1
2021-09-15T16:38:00Z,00000200,01000000,0003.20,0001.80,0000.77,0001.16,0000.70,0000.33,0000.18,0000.19,0000.38,19.0,25.5,01.0,00.7,0659.0,31.1
2021-09-15T16:39:00Z,00000200,01000000,0002.27,0001.72,0001.03,0000.33,0000.37,0000.10,0000.11,0000.28,0000.11,19.0,25.4,00.9,00.6,0659.0,31.1
2021-09-15T16:40:00Z,00000200,01000000,0002.79,0001.95,0000.93,0001.11,0000.29,-000.14,0000.06,0000.09,0000.37,19.0,25.5,01.0,00.7,0659.0,31.1
2021-09-15T16:41:00Z,00000200,01000000,0002.43,0001.54,0001.07,0000.43,0000.38,0000.26,0000.08,0000.25,-000.17,19.0,25.4,00.9,00.6,0659.0,31.1
2021-09-15T16:42:00Z,00000200,01000000,0002.94,0002.01,0001.01,-000.16,0000.46,0000.17,0000.00,-000.07,0000.09,19.0,25.4,01.0,00.6,0659.0,31.1
2021-09-15T16:43:00Z,00000200,01000000,0002.29,0001.69,0001.01,0000.82,0000.12,0000.05,0000.44,0000.19,0000.06,19.0,25.4,01.0,00.7,0659.0,31.1
2021-09-15T16:44:00Z,00000200,01000000,0002.87,0001.77,0000.88,-000.25,0000.44,0000.16,0000.24,0000.38,0000.45,19.0,25.4,01.0,00.6,0659.0,31.1
2021-09-15T16:45:00Z,00000200,01000000,0001.98,0001.85,0001.15,0000.19,0000.38,0000.12,0000.05,0000.06,-000.04,18.9,25.4,01.0,00.7,0659.0,31.1
2021-09-15T16:46:00Z,00000200,01000000,0002.58,0001.84,0001.33,0000.99,0000.40,0000.31,0000.49,0000.11,0000.52,18.9,25.4,01.0,00.7,0659.0,31.0
2021-09-15T16:47:00Z,00000200,01000000,0002.17,0001.86,0001.16,0000.34,0000.41,0000.25,-000.01,0000.06,-000.19,18.9,25.4,01.0,00.7,0659.0,31.0
2021-09-15T16:48:00Z,00000200,01000000,0002.50,0001.81,0001.23,0000.19,0000.19,0000.23,-000.28,0000.02,-000.02,18.9,25.4,01.0,00.7,0659.0,31.1
2021-09-15T16:49:00Z,00000200,01000000,0002.42,0001.70,0000.81,0000.62,0000.26,0000.02,0000.28,-000.32,0000.04,18.9,25.4,01.0,00.6,0659.0,31.1
2021-09-15T16:50:00Z,00000200,01000000,0002.40,0001.71,0000.85,0000.47,0000.23,-000.10,-000.25,-000.14,-000.24,18.9,25.4,00.9,00.6,0659.0,31.1
2021-09-15T16:51:00Z,00000200,01000000,0002.54,0001.57,0000.93,0000.56,0000.12,0000.21,0000.01,0000.49,0000.49,18.9,25.4,00.9,00.6,0659.0,31.1
2021-09-15T16:52:00Z,00000200,01000000,0001.59,0001.69,0000.92,0000.31,0000.55,0000.16,0000.27,0000.18,-000.22,18.9,25.4,00.9,00.6,0659.0,31.1
2021-09-15T16:53:00Z,00000200,01000000,0002.72,0001.39,0000.92,0000.14,0000.28,0000.54,-000.16,0000.08,0000.12,18.9,25.4,01.0,00.7,0659.0,31.1
2021-09-15T16:54:00Z,00000200,01000000,0001.91,0001.44,0001.06,0000.38,0000.26,0000.09,0000.58,0000.02,0000.25,18.9,25.4,00.9,00.6,0658.9,31.1
2021-09-15T16:55:00Z,00000200,01000000,0002.33,0002.01,0001.35,0000.73,0000.31,0000.49,-000.10,0000.11,0000.06,18.9,25.4,00.9,00.6,0659.0,31.1
2021-09-15T16:56:00Z,00000200,01000000,0002.11,0001.47,0001.15,0000.19,0000.52,0000.22,0000.54,-000.03,0000.14,18.9,25.4,00.9,00.6,0659.0,31.1
2021-09-15T16:57:00Z,00000200,41000000,,,,,,,-000.18,0000.50,0000.49,19.0,25.5,00.6,00.4,0659.0,31.1
2021-09-15T16:58:00Z,00000200,61000000,,,,,,,0000.14,-000.14,0000.18,18.7,25.6,00.7,00.5,0658.0,31.1
2021-09-15T16:59:00Z,00000200,21000000,,,,,,,-000.11,0000.10,-000.60,18.7,25.7,00.6,00.4,0658.0,31.1
